409  
ASUS41 KLWX 130612  
RWRLWX  
 
REGIONAL WEATHER ROUNDUP  
NATIONAL WEATHER SERVICE BALTIMORE MD/WASHINGTON DC  
200 AM EDT TUE APR 13 2021  
 
NOTE: "FAIR" INDICATES FEW OR NO CLOUDS BELOW 12,000 FEET  
WITH NO SIGNIFICANT WEATHER AND/OR S TO VISIBILITY
.  
TC=TEMPERATURE CELSIUS  
 
* =NON NWS SITE. STATION DOES NOT REPORT PRECIPITATION (E.G. RAIN,  
SNOW, ETC.), THUNDER, OR FOG.
 
 
DCZ001-MDZ009-015-VAZ040>042-051-053>054-130700-  
WASHINGTON METRO  
 
CITY SKY/WX TMP DP RH WIND PRES REMARKS
 
WASHINGTON NAT LGT RAIN 51 45 79 E5 29.96S  
DULLES CLOUDY 50 47 89 NE5 29.96R  
ANDREWS AFB MOCLDY 48 46 92 CALM 29.94S  
FT BELVOIR CLOUDY 50 47 92 CALM 29.96S  
QUANTICO CLOUDY 54 47 77 NE7 29.96S  
COLLEGE PARK* N/A 48 44 85 CALM 29.95F  
MANASSAS* CLOUDY 50 47 89 E5 29.96S  
GAITHERSBURG* CLOUDY 48 46 93 CALM 29.96S  
 

 
 
MDZ006>007-011-014-130700-  
BALTIMORE METRO  
 
CITY SKY/WX TMP DP RH WIND PRES REMARKS
 
BWI AIRPORT CLOUDY 50 44 80 CALM 29.95S  
MARTIN STATE CLOUDY 50 46 87 NW3 29.98R  
ANNAPOLIS CLOUDY 51 47 86 N3 29.95S  
ABERDEEN* CLOUDY 49 44 84 CALM 29.96R  
FORT MEADE* CLOUDY 46 46 100 CALM 29.98S  
 

 
 
MDZ012-015-019>023-130700-  
MARYLAND EASTERN SHORE  
 
CITY SKY/WX TMP DP RH WIND PRES REMARKS
 
OCEAN CITY CLOUDY 48 42 80 NE12G22 29.93S  
SALISBURY NOT AVBL  
CAMBRIDGE* CLOUDY 50 46 87 CALM 29.95S  
EASTON* CLOUDY 50 47 88 N3 29.99R  
 

 
 
MDZ017>025-130700-  
SOUTHERN MARYLAND  
 
CITY SKY/WX TMP DP RH WIND PRES REMARKS
 
PATUXENT RIVER CLOUDY 51 47 86 NE6 29.95R  
ST INIGOES CLOUDY 53 45 74 CALM 29.94R  
LEONARDTOWN* NOT AVBL  
 

 
 
MDZ003>005-130700-  
NORTH CENTRAL MARYLAND  
 
CITY SKY/WX TMP DP RH WIND PRES REMARKS
 
FREDERICK* CLOUDY 50 48 93 NE3 29.96S  
HAGERSTOWN APT CLOUDY 50 48 93 NW5 29.95S FOG  
WESTMINSTER* CLOUDY 48 46 93 E3 29.95S  
 

 
 
MDZ501>502-130700-  
WESTERN MARYLAND  
 
CITY SKY/WX TMP DP RH WIND PRES REMARKS
 
OAKLAND* CLOUDY 43 43 100 NW3 29.96S  
CUMBERLAND* CLOUDY 50 47 88 W3 29.99S  
 

 
 
VAZ025>031-130700-  
SHENANDOAH VALLEY  
 
CITY SKY/WX TMP DP RH WIND PRES REMARKS
 
WINCHESTER* MOCLDY 48 46 93 CALM 29.93S  
FRONT ROYAL* CLOUDY 50 50 100 CALM 29.94R  
LURAY* CLOUDY 52 48 87 CALM 29.94F  
NEW MARKET* CLOUDY 53 48 83 CALM 29.95F  
STAUNTON* CLOUDY 52 45 78 NE3 29.97S  
WAYNESBORO* CLOUDY 54 42 63 W10 29.95S  
 

 
 
WVZ021-048>050-054>055-130700-  
EASTERN WEST VIRGINIA PANHANDLE  
 
CITY SKY/WX TMP DP RH WIND PRES REMARKS
 
MARTINSBURG CLOUDY 50 48 93 NE7 29.94S FOG  
PETERSBURG* CLOUDY 53 53 100 CALM 29.97S  
 

 
 
VAZ036>039-050-130700-  
CENTRAL FOOTHILLS  
 
CITY SKY/WX TMP DP RH WIND PRES REMARKS
 
CHARLOTTESVILL LGT RAIN 54 49 83 CALM 29.94S  
CULPEPER* CLOUDY 53 51 94 CALM 29.96F  
ORANGE* CLOUDY 50 50 100 NE3 29.95S  
GORDONSVILLE* MOCLDY 51 51 100 CALM 29.95R  
WARRENTON* CLOUDY 52 49 90 CALM 29.95S  
 

 
 
VAZ055>057-130700-  
NORTH AND CENTRAL PIEDMONT  
 
CITY SKY/WX TMP DP RH WIND PRES REMARKS
 
FREDERICKSBRG* CLOUDY 52 50 94 N5 29.95S  
STAFFORD* CLOUDY 51 49 95 CALM 30.00R  
 

 
 
NCZ024-NYZ072-PAZ021-071-VAZ022-071-130700-  
OTHER REGIONAL OBSERVATIONS  
 
CITY SKY/WX TMP DP RH WIND PRES REMARKS
 
NEW YORK CITY LGT RAIN 46 43 89 N9 29.98S  
PHILADELPHIA CLOUDY 46 44 93 E8 29.96S FOG  
PITTSBURGH CLEAR 45 43 93 CALM 29.96R FOG  
ROANOKE PTCLDY 59 42 53 NW10G22 29.97F  
RICHMOND CLOUDY 53 51 93 NE3 29.93S  
RALEIGH PTCLDY 58 42 55 NE5 29.93S  
 

 
 
ANZ530>537-130700-  
MARINE OBSERVATIONS  
 
STATION/POSITION TIME TEMP WIND PRES
 
AIR SEA DIR/SP/G  
(UTC) (F) (DEG/KT/KT) (MB)  
THOMAS PT LIGHT 0600 50 56 10/ 5/ 6 1015.3S  
TOLCHESTER 0524 49 57 100/ 2/ 3 1014.7  
GOOSES REEF 0548 49 55 10/ 6/ 12 1015.1R  
COVE POINT 0524 50 60/ 5/ 9 1013.8  
BALT HARBOR 0524 51 60 160/ 2/ 4 1014.1  
BALT KEY BRIDGE 0524 50 130/ 5/ 5 1014.5  
WASH DC CHANNEL 0524 51 62 50/ 3/ 5 1014.8  
DAHLGREN 0524 50 61 360/ 1/ 3 1013.6  
LEWISETTA 0524 51 56 60/ 6/ 8 1013.9  
SOLOMONS ISLAND 0524 51 56 60/ 7/ 8 1013.7  
PINEY POINT 0524 60/ 3/ 5 N/A  
POTOMAC BUOY 0554 51 56 50/ 10/ 10 1014.2R  
CAMBRIDGE PIER 0524 50 59 20/ 5/ 7 1014.0  
BISHOPS HEAD 0524 50 61 40/ 10/ 13 1013.9  
CHESAPEAKE CITY 0524 49 56 30/ 1/ 2 1014.6  
 

 
 
 
 
CLICK HERE TO GO TO PREVIOUS BULLETINS.

The Nexlab VA Page
The Nexlab MD Page
The Nexlab WV Page Main Text Page